GW3026 Weather Reports


time (UTC)temp
F
wind
direction
speed
knots
gust
knots
rain 1hr
in
rain 24hr
in
rain mn
in
humidity
%
barometer
mb
20260505071104 35 17 1.7 2.6 0.00 0.21 0.00 92 1014.9
20260505070603 36 40 0.9 2.6 0.00 0.21 0.00 92 1014.9
20260505070104 36 40 0.9 2.6 0.00 0.21 0.00 91 1014.7
20260505065604 36 40 0.9 2.6 0.00 0.21 0.00 90 1015.4
20260505065103 37 41 0.9 2.6 0.00 0.21 0.00 89 1015.4
20260505064103 36 36 0.0 4.3 0.00 0.21 0.00 90 1015.4
20260505063603 36 36 0.9 4.3 0.00 0.21 0.00 91 1015.3
20260505063103 36 34 1.7 4.3 0.00 0.21 0.00 92 1015.3
20260505062103 36 320 1.7 8.7 0.00 0.21 0.00 92 1015.2
20260505061603 36 310 0.9 10.4 0.00 0.21 0.00 91 1015.1
20260505061104 36 267 3.5 10.4 0.00 0.21 0.00 91 1015.2
20260505060603 36 239 5.2 10.4 0.00 0.21 0.00 91 1015.1
20260505055103 36 246 1.7 7.0 0.00 0.21 0.21 91 1015.5
20260505054603 36 317 2.6 8.7 0.00 0.21 0.21 91 1015.6
20260505054103 36 292 1.7 8.7 0.00 0.21 0.21 91 1015.7
20260505053604 36 231 2.6 8.7 0.00 0.21 0.21 91 1015.6
20260505053104 36 240 2.6 7.0 0.00 0.21 0.21 91 1015.4
20260505052603 36 217 1.7 7.0 0.00 0.21 0.21 92 1015.4
20260505052103 36 239 2.6 7.0 0.00 0.21 0.21 92 1015.7
20260505050603 36 261 3.5 8.7 0.01 0.21 0.21 92 1015.6
20260505050103 35 243 4.3 7.8 0.01 0.21 0.21 92 1015.8
20260505041104 34 232 2.6 7.0 0.10 0.21 0.21 93 1015.6
20260505040603 35 269 0.9 2.6 0.10 0.20 0.20 92 1016.1
20260505040104 35 292 0.9 2.6 0.10 0.20 0.20 92 1016.2
20260505035603 35 340 0.9 2.6 0.09 0.19 0.19 92 1016.6
20260505035104 35 19 0.9 1.7 0.08 0.18 0.18 92 1016.5
20260505034603 35 19 0.9 2.6 0.07 0.17 0.17 92 1016.5
20260505034103 35 19 0.9 4.3 0.06 0.16 0.16 92 1016.6
20260505033603 36 19 1.7 4.3 0.05 0.15 0.15 92 1016.5
20260505033104 36 33 0.9 2.6 0.02 0.12 0.12 92 1016.5
20260505032103 37 352 1.7 4.3 0.01 0.11 0.11 92 1016.4
20260505031603 37 221 0.0 5.2 0.01 0.11 0.11 91 1016.1
20260505031104 37 217 1.7 5.2 0.01 0.11 0.11 91 1015.7
20260505030607 37 217 1.7 5.2 0.00 0.10 0.10 91 1015.4
20260505030105 37 185 1.7 2.6 0.00 0.10 0.10 90 1015.5
20260505025605 37 246 0.9 7.0 0.00 0.10 0.10 89 1016.0
20260505024604 38 262 1.7 8.7 0.00 0.10 0.10 88 1015.9
20260505024105 38 198 2.6 6.1 0.00 0.10 0.10 88 1016.0
20260505023605 38 263 0.9 7.8 0.00 0.10 0.10 89 1015.8
20260505022604 38 248 2.6 7.8 0.00 0.10 0.10 89 1015.6
20260505022104 38 232 2.6 7.8 0.00 0.10 0.10 89 1015.5
20260505021605 39 247 1.7 7.8 0.00 0.10 0.10 88 1015.3
20260505021104 39 220 2.6 10.4 0.00 0.10 0.10 88 1015.3
20260505020105 39 157 1.7 12.2 0.00 0.10 0.10 88 1014.9
20260505015605 39 257 5.2 12.2 0.00 0.10 0.10 88 1014.9
20260505015104 39 268 6.1 10.4 0.00 0.10 0.10 88 1014.8
20260505014604 39 248 6.1 11.3 0.01 0.10 0.10 88 1014.7
20260505014104 39 251 6.1 11.3 0.01 0.10 0.10 88 1015.0
20260505013605 39 245 5.2 10.4 0.01 0.10 0.10 87 1014.8
20260505012604 39 245 5.2 11.3 0.01 0.10 0.10 86 1014.9
20260505011604 39 248 6.1 10.4 0.01 0.10 0.10 87 1015.4
20260505010604 39 226 5.2 8.7 0.02 0.10 0.10 88 1015.0
20260505010105 40 224 2.6 6.1 0.03 0.10 0.10 90 1015.5
20260505005604 40 162 1.7 2.6 0.03 0.10 0.10 89 1015.3
20260505004605 39 172 1.7 7.0 0.03 0.09 0.09 89 1015.1
20260505004105 39 172 1.7 7.0 0.03 0.09 0.09 90 1015.1
20260505003604 39 192 3.5 7.0 0.03 0.09 0.09 89 1015.1
20260505003105 38 208 3.5 6.1 0.03 0.09 0.09 89 1015.1
20260505002604 38 236 2.6 6.1 0.03 0.09 0.09 89 1015.1
20260504235605 38 353 4.3 10.4 0.05 0.07 0.07 88 1016.0
20260504235105 38 347 5.2 10.4 0.04 0.06 0.06 87 1016.1
20260504234605 38 341 5.2 10.4 0.04 0.06 0.06 87 1015.7
20260504234104 38 334 4.3 10.4 0.04 0.06 0.06 86 1015.7
20260504233604 38 345 4.3 10.4 0.05 0.06 0.06 87 1015.4
20260504233104 38 343 4.3 7.8 0.05 0.06 0.06 87 1015.3
20260504232605 38 342 2.6 7.0 0.06 0.06 0.06 88 1015.1
20260504232105 38 333 2.6 7.0 0.06 0.06 0.06 87 1015.1
20260504231605 38 340 1.7 4.3 0.05 0.05 0.05 85 1014.9
20260504231105 39 333 1.7 4.3 0.04 0.04 0.04 84 1014.8
20260504230605 40 356 1.7 4.3 0.03 0.03 0.03 81 1014.9
20260504230105 40 1 0.9 2.6 0.02 0.02 0.02 82 1014.7
20260504225605 41 4 0.9 5.2 0.02 0.02 0.02 80 1015.1
20260504225104 41 126 1.7 5.2 0.02 0.02 0.02 78 1014.9
20260504224105 41 75 0.9 7.0 0.02 0.02 0.02 75 1014.9
20260504223604 42 90 2.6 7.0 0.01 0.01 0.01 72 1014.9
20260504223105 44 120 1.7 7.0 0.01 0.01 0.01 68 1014.7
20260504222105 47 51 1.7 7.0 0.00 0.00 0.00 60 1014.8
20260504221605 50 9 2.6 7.0 0.00 0.00 0.00 52 1014.8
20260504220605 51 131 3.5 7.0 0.00 0.00 0.00 45 1014.3
20260504220105 51 109 1.7 7.0 0.00 0.00 0.00 46 1014.2
20260504215605 52 114 2.6 7.0 0.00 0.00 0.00 45 1014.2
20260504215105 52 130 4.3 7.8 0.00 0.00 0.00 45 1014.1
20260504214604 52 139 4.3 7.8 0.00 0.00 0.00 44 1014.1
20260504214104 52 134 3.5 7.0 0.00 0.00 0.00 43 1014.3
20260504213105 53 165 2.6 6.1 0.00 0.00 0.00 42 1014.3
20260504212605 53 171 2.6 6.1 0.00 0.00 0.00 42 1014.3
20260504212105 53 53 2.6 4.3 0.00 0.00 0.00 42 1014.3
20260504205605 54 44 1.7 7.0 0.00 0.00 0.00 43 1014.7
20260504205106 54 236 1.7 7.0 0.00 0.00 0.00 41 1014.7
20260504204105 55 47 4.3 6.1 0.00 0.00 0.00 43 1015.1
20260504203605 54 133 2.6 6.1 0.00 0.00 0.00 45 1015.3
20260504203105 54 93 2.6 8.7 0.00 0.00 0.00 45 1015.3
20260504202605 54 92 2.6 10.4 0.00 0.00 0.00 45 1015.5
20260504202105 54 112 2.6 10.4 0.00 0.00 0.00 45 1015.6
20260504201604 53 61 2.6 7.8 0.00 0.00 0.00 47 1015.7
20260504201105 52 160 1.7 6.1 0.00 0.00 0.00 46 1015.1
20260504200605 52 133 1.7 10.4 0.00 0.00 0.00 47 1015.0
20260504200105 51 347 2.6 10.4 0.00 0.00 0.00 48 1015.0
20260504195605 51 346 4.3 8.7 0.00 0.00 0.00 47 1015.7
20260504195105 51 83 1.7 8.7 0.00 0.00 0.00 48 1015.5
20260504194605 50 39 2.6 8.7 0.00 0.00 0.00 48 1015.5
20260504194105 50 15 3.5 7.0 0.00 0.00 0.00 46 1015.6
20260504193605 50 5 2.6 5.2 0.00 0.00 0.00 46 1015.6
20260504193105 50 28 1.7 7.8 0.00 0.00 0.00 47 1015.5
20260504192605 51 50 1.7 8.7 0.00 0.00 0.00 45 1015.6
20260504192106 50 90 1.7 8.7 0.00 0.00 0.00 46 1015.6
20260504191605 51 88 1.7 8.7 0.00 0.00 0.00 46 1015.5
20260504191105 51 132 1.7 8.7 0.00 0.00 0.00 46 1015.5
20260504190605 51 129 1.7 8.7 0.00 0.00 0.00 46 1015.5
20260504185605 51 120 2.6 10.4 0.00 0.00 0.00 43 1015.7
20260504185106 52 257 3.5 10.4 0.00 0.00 0.00 41 1015.5
20260504184605 52 340 2.6 10.4 0.00 0.00 0.00 40 1015.5
20260504184105 53 353 4.3 13.0 0.00 0.00 0.00 40 1015.6
20260504183605 54 133 7.8 13.0 0.00 0.00 0.00 39 1015.5
20260504183106 54 62 3.5 8.7 0.00 0.00 0.00 40 1015.6
20260504182605 52 288 2.6 10.4 0.00 0.00 0.00 38 1015.6
20260504181605 50 346 2.6 20.9 0.00 0.00 0.00 37 1015.6
20260504181106 50 216 8.7 20.9 0.00 0.00 0.00 37 1015.6
20260504180605 50 244 5.2 13.9 0.00 0.00 0.00 39 1015.6
20260504175606 50 217 8.7 15.6 0.00 0.00 0.00 37 1015.7
20260504175105 52 241 8.7 15.6 0.00 0.00 0.00 36 1015.7
20260504174605 52 246 4.3 7.8 0.00 0.00 0.00 32 1015.5
20260504173105 53 348 4.3 18.2 0.00 0.00 0.00 33 1015.8
20260504172601 53 334 11.3 18.2 0.00 0.00 0.00 33 1015.7
20260504172101 53 216 3.5 14.8 0.00 0.00 0.00 31 1015.7
20260504171601 53 343 8.7 14.8 0.00 0.00 0.00 30 1015.8
20260504171101 54 257 2.6 11.3 0.00 0.00 0.00 32 1015.8
20260504170602 54 39 3.5 11.3 0.00 0.00 0.00 32 1015.8
20260504151101 48 273 7.8 14.8 0.00 0.00 0.00 41 1017.1
20260504141102 48 311 1.7 7.0 0.00 0.00 0.00 37 1017.2
20260504140601 48 272 2.6 10.4 0.00 0.00 0.00 37 1017.2
20260504130602 47 292 7.0 13.0 0.00 0.00 0.00 35 1017.2
20260504130103 47 310 6.1 13.0 0.00 0.00 0.00 35 1017.2
20260504100603 46 301 4.3 8.7 0.00 0.00 0.00 33 1016.8
20260504081103 46 282 4.3 7.8 0.00 0.00 0.00 35 1017.8
20260504080602 46 286 4.3 7.8 0.00 0.00 0.00 35 1017.8